When you browse on this site, cookies collect data to enhance your experience and personalize the content and advertising you see.
Visit our Privacy Policy to learn more. By continuing to use the site, you agree to this use of cookies and data.
  • en Belgique
  • Liste des pays
  • À 7 jours
  • Température de l'eau
  • Carte météo
  • Widgets météo
  • user-avatar
    Se connecter

    Météo par heure à Orsha

    Ce jour, 1 Juin, Lundi

    Heure Température Précipitation Vent Pression Humidité
    00:00 +7°C° 0 mm 5 m/s 744 mmHg 81%
    01:00 +6°C° 0 mm 5 m/s 744 mmHg 81%
    02:00 +5°C° 0 mm 4 m/s 744 mmHg 82%
    03:00 +5°C° 0 mm 5 m/s 744 mmHg 82%
    04:00 +5°C° 0 mm 5 m/s 744 mmHg 83%
    05:00 +5°C° 0 mm 5 m/s 744 mmHg 83%
    06:00 +5°C° 0 mm 6 m/s 744 mmHg 80%
    07:00 +7°C° 0 mm 6 m/s 744 mmHg 78%
    08:00 +8°C° 0 mm 7 m/s 744 mmHg 74%
    09:00 +8°C° 0.2 mm 7 m/s 744 mmHg 74%
    10:00 +8°C° 0.2 mm 7 m/s 744 mmHg 75%
    11:00 +7°C° 0.2 mm 8 m/s 744 mmHg 75%
    12:00 +7°C° 0.2 mm 8 m/s 744 mmHg 80%
    13:00 +6°C° 0.2 mm 7 m/s 744 mmHg 85%
    14:00 +5°C° 0.2 mm 7 m/s 744 mmHg 90%
    15:00 +6°C° 0.3 mm 7 m/s 744 mmHg 90%
    16:00 +7°C° 0.3 mm 6 m/s 743 mmHg 91%
    17:00 +8°C° 0.3 mm 6 m/s 743 mmHg 91%
    18:00 +8°C° 0.9 mm 7 m/s 743 mmHg 92%
    19:00 +8°C° 0.9 mm 7 m/s 743 mmHg 93%
    20:00 +7°C° 0.9 mm 8 m/s 742 mmHg 94%
    21:00 +7°C° 0.9 mm 8 m/s 742 mmHg 94%
    22:00 +7°C° 0.9 mm 8 m/s 741 mmHg 93%
    23:00 +7°C° 0.9 mm 8 m/s 741 mmHg 93%

    Demain, 2 Juin, Mardi

    Heure Température Précipitation Vent Pression Humidité
    00:00 +7°C° 0.9 mm 8 m/s 740 mmHg 93%
    01:00 +7°C° 0.9 mm 9 m/s 740 mmHg 93%
    02:00 +7°C° 0.9 mm 9 m/s 740 mmHg 93%
    03:00 +6°C° 1.1 mm 9 m/s 739 mmHg 93%
    04:00 +6°C° 1.1 mm 9 m/s 739 mmHg 94%
    05:00 +6°C° 1.1 mm 9 m/s 738 mmHg 94%
    06:00 +6°C° 1.5 mm 9 m/s 738 mmHg 94%
    07:00 +6°C° 1.5 mm 9 m/s 739 mmHg 94%
    08:00 +6°C° 1.5 mm 10 m/s 739 mmHg 94%
    09:00 +6°C° 0.5 mm 10 m/s 739 mmHg 93%
    10:00 +6°C° 0.5 mm 10 m/s 739 mmHg 93%
    11:00 +7°C° 0.5 mm 10 m/s 739 mmHg 93%
    12:00 +7°C° 1.2 mm 9 m/s 739 mmHg 93%
    13:00 +7°C° 1.2 mm 8 m/s 739 mmHg 93%
    14:00 +7°C° 1.2 mm 8 m/s 739 mmHg 94%
    15:00 +8°C° 0.8 mm 7 m/s 739 mmHg 94%
    16:00 +8°C° 0.8 mm 7 m/s 739 mmHg 94%
    17:00 +8°C° 0.8 mm 6 m/s 739 mmHg 95%
    18:00 +8°C° 0.7 mm 6 m/s 739 mmHg 95%
    19:00 +9°C° 0.7 mm 6 m/s 739 mmHg 95%
    20:00 +9°C° 0.7 mm 6 m/s 739 mmHg 96%
    21:00 +8°C° 0.2 mm 5 m/s 739 mmHg 96%
    22:00 +8°C° 0.2 mm 4 m/s 739 mmHg 96%
    23:00 +8°C° 0.2 mm 4 m/s 739 mmHg 97%

    Après-demain, 3 Juin, Mercredi

    Heure Température Précipitation Vent Pression Humidité
    00:00 +8°C° 0 mm 3 m/s 739 mmHg 97%
    01:00 +8°C° 0 mm 3 m/s 739 mmHg 97%
    02:00 +7°C° 0 mm 3 m/s 739 mmHg 97%
    03:00 +8°C° 0 mm 3 m/s 739 mmHg 97%
    04:00 +8°C° 0 mm 3 m/s 739 mmHg 96%
    05:00 +8°C° 0 mm 3 m/s 739 mmHg 96%
    06:00 +9°C° 0 mm 3 m/s 739 mmHg 94%
    07:00 +10°C° 0 mm 3 m/s 739 mmHg 91%
    08:00 +12°C° 0 mm 3 m/s 740 mmHg 88%
    09:00 +13°C° 0.1 mm 4 m/s 739 mmHg 83%
    10:00 +14°C° 0.1 mm 4 m/s 739 mmHg 78%
    11:00 +15°C° 0.1 mm 4 m/s 739 mmHg 73%
    12:00 +17°C° 0.6 mm 4 m/s 739 mmHg 75%
    13:00 +17°C° 0.6 mm 4 m/s 739 mmHg 76%
    14:00 +17°C° 0.6 mm 4 m/s 738 mmHg 77%
    15:00 +17°C° 0.9 mm 4 m/s 738 mmHg 79%
    16:00 +17°C° 0.9 mm 3 m/s 738 mmHg 81%
    17:00 +16°C° 0.9 mm 3 m/s 738 mmHg 83%
    18:00 +14°C° 0.5 mm 3 m/s 738 mmHg 85%
    19:00 +13°C° 0.5 mm 3 m/s 737 mmHg 88%
    20:00 +12°C° 0.5 mm 3 m/s 737 mmHg 90%
    21:00 +12°C° 0 mm 3 m/s 737 mmHg 92%
    22:00 +11°C° 0 mm 3 m/s 737 mmHg 93%
    23:00 +10°C° 0 mm 3 m/s 737 mmHg 95%

    4 Juin, Jeudi

    Heure Température Précipitation Vent Pression Humidité
    00:00 +10°C° 0 mm 2 m/s 737 mmHg 96%
    01:00 +9°C° 0 mm 2 m/s 737 mmHg 96%
    02:00 +9°C° 0 mm 2 m/s 736 mmHg 97%
    03:00 +9°C° 0 mm 2 m/s 736 mmHg 97%
    04:00 +11°C° 0 mm 1 m/s 736 mmHg 96%
    05:00 +11°C° 0 mm 1 m/s 736 mmHg 96%
    06:00 +12°C° 0 mm 1 m/s 736 mmHg 94%
    07:00 +13°C° 0 mm 1 m/s 735 mmHg 91%
    08:00 +14°C° 0 mm 1 m/s 735 mmHg 89%
    09:00 +14°C° 0.2 mm 1 m/s 735 mmHg 89%
    10:00 +14°C° 0.2 mm 2 m/s 735 mmHg 88%
    11:00 +14°C° 0.2 mm 2 m/s 735 mmHg 88%
    12:00 +15°C° 0.3 mm 2 m/s 735 mmHg 84%
    13:00 +16°C° 0.3 mm 3 m/s 735 mmHg 79%
    14:00 +17°C° 0.3 mm 3 m/s 735 mmHg 75%
    15:00 +17°C° 0.5 mm 3 m/s 735 mmHg 76%
    16:00 +17°C° 0.5 mm 3 m/s 735 mmHg 77%
    17:00 +17°C° 0.5 mm 4 m/s 735 mmHg 78%
    18:00 +16°C° 0.3 mm 3 m/s 735 mmHg 82%
    19:00 +13°C° 0.3 mm 3 m/s 735 mmHg 86%
    20:00 +12°C° 0.3 mm 3 m/s 735 mmHg 90%
    21:00 +11°C° 0 mm 3 m/s 735 mmHg 91%
    22:00 +10°C° 0 mm 3 m/s 735 mmHg 93%
    23:00 +10°C° 0 mm 3 m/s 735 mmHg 94%

    5 Juin, Vendredi

    Heure Température Précipitation Vent Pression Humidité
    00:00 +9°C° 0 mm 3 m/s 735 mmHg 95%
    01:00 +9°C° 0 mm 3 m/s 735 mmHg 95%
    02:00 +8°C° 0 mm 3 m/s 735 mmHg 96%
    03:00 +9°C° 0 mm 3 m/s 736 mmHg 96%
    04:00 +9°C° 0 mm 3 m/s 736 mmHg 97%
    05:00 +8°C° 0 mm 4 m/s 736 mmHg 97%
    06:00 +11°C° 0 mm 4 m/s 736 mmHg 94%
    07:00 +12°C° 0 mm 4 m/s 737 mmHg 91%
    08:00 +14°C° 0 mm 4 m/s 737 mmHg 88%
    09:00 +15°C° 0.4 mm 4 m/s 737 mmHg 83%
    10:00 +17°C° 0.4 mm 4 m/s 737 mmHg 79%
    11:00 +18°C° 0.4 mm 4 m/s 737 mmHg 75%
    12:00 +18°C° 0.3 mm 4 m/s 737 mmHg 71%
    13:00 +19°C° 0.3 mm 3 m/s 737 mmHg 68%
    14:00 +20°C° 0.3 mm 2 m/s 737 mmHg 64%
    15:00 +20°C° 0.1 mm 2 m/s 737 mmHg 65%
    16:00 +20°C° 0.1 mm 2 m/s 737 mmHg 66%
    17:00 +20°C° 0.1 mm 2 m/s 737 mmHg 68%
    18:00 +18°C° 0 mm 2 m/s 737 mmHg 73%
    19:00 +17°C° 0 mm 2 m/s 738 mmHg 79%
    20:00 +15°C° 0 mm 2 m/s 738 mmHg 85%
    21:00 +14°C° 0 mm 2 m/s 738 mmHg 86%
    22:00 +14°C° 0 mm 2 m/s 738 mmHg 88%
    23:00 +13°C° 0 mm 2 m/s 738 mmHg 90%

    6 Juin, Samedi

    Heure Température Précipitation Vent Pression Humidité
    00:00 +11°C° 0 mm 3 m/s 738 mmHg 91%
    01:00 +11°C° 0 mm 3 m/s 738 mmHg 92%
    02:00 +11°C° 0 mm 3 m/s 738 mmHg 93%
    03:00 +11°C° 0 mm 3 m/s 738 mmHg 93%
    04:00 +12°C° 0 mm 3 m/s 739 mmHg 93%
    05:00 +12°C° 0 mm 3 m/s 739 mmHg 93%
    06:00 +14°C° 0 mm 3 m/s 739 mmHg 90%
    07:00 +15°C° 0 mm 4 m/s 739 mmHg 88%
    08:00 +18°C° 0 mm 4 m/s 739 mmHg 85%
    09:00 +19°C° 0 mm 4 m/s 739 mmHg 83%
    10:00 +19°C° 0 mm 4 m/s 739 mmHg 82%
    11:00 +20°C° 0 mm 4 m/s 739 mmHg 81%
    12:00 +21°C° 0.1 mm 4 m/s 739 mmHg 79%
    13:00 +22°C° 0.1 mm 5 m/s 739 mmHg 77%
    14:00 +23°C° 0.1 mm 5 m/s 738 mmHg 75%
    15:00 +22°C° 0.2 mm 5 m/s 738 mmHg 77%
    16:00 +22°C° 0.2 mm 5 m/s 738 mmHg 80%
    17:00 +22°C° 0.2 mm 5 m/s 738 mmHg 82%
    18:00 +21°C° 1.2 mm 4 m/s 738 mmHg 84%
    19:00 +20°C° 1.2 mm 4 m/s 738 mmHg 87%
    20:00 +19°C° 1.2 mm 3 m/s 738 mmHg 89%
    21:00 +18°C° 0.5 mm 3 m/s 738 mmHg 90%
    22:00 +18°C° 0.5 mm 3 m/s 738 mmHg 92%
    23:00 +17°C° 0.5 mm 2 m/s 738 mmHg 93%
    Voir plus